Location: D�pe
(52.6057°N, 8.1808°E)
Time: 14:43:23
(UTC+00:00)

Cosmos 2278 - Pass Details

Date: 29 October 2020
Orbit: 841 x 851 km, 71.1° (Epoch: 28 November)

Event Time Altitude Azimuth Distance (km) Brightness Sun altitude
Rises 18:04:22 0° 184° (S) 3,399 6.9 -19.0°
Reaches altitude 10° 18:06:56 10° 177° (S) 2,466 6.1 -19.4°
Maximum altitude 18:12:10 40° 109° (ESE) 1,225 4.0 -20.2°
Enters shadow 18:12:42 39° 95° (E) 1,245 4.0 -20.3°
